Location: Nairn
(57.5833°N, 3.8667°W)
Time: 19:41:54
(UTC+00:00)

Tiros 1 - Pass Details

Date: 05 December 2020
Orbit: 630 x 663 km, 48.4° (Epoch: 22 January)

Event Time Altitude Azimuth Distance (km) Brightness Sun altitude
Rises 14:21:01 0° 226° (SW) 2,990 12.4 5.1°
Reaches altitude 10° 14:23:47 10° 212° (SSW) 2,080 12.9 4.9°
Maximum altitude 14:27:27 22° 162° (SSE) 1,441 9.6 4.7°
Drops below altitude 10° 14:31:07 10° 112° (ESE) 2,080 9.7 4.4°
Sets 14:33:53 0° 97° (E) 2,990 10.3 4.2°
